SJ-11-08                
1 40286U 14066A   19265.12090986  .00000036  00000-0  16470-4 0  9996
2 40286  98.0679  27.2774 0013980  26.3675 333.8231 14.61722034261507
CZ-2C R/B               
1 40287U 14066B   19264.50346828  .00000002  00000-0  91828-5 0  9991
2 40287  97.9918 351.5733 0008888 171.7822 188.3529 14.64427055261961
CZ-2C DEB               
1 40288U 14066C   19264.48523515  .00000076  00000-0  45492-4 0  9995
2 40288  97.9401 222.3922 0186097 300.0789  58.2051 14.20770923254045
CZ-2C DEB               
1 40289U 14066D   19263.90302137  .00000441  00000-0  11429-3 0  9995
2 40289  98.5979  62.9488 0107817 175.9564 184.2527 14.51565893259316
CZ-2C DEB               
1 40290U 14066E   19264.78976635  .00000443  00000-0  10974-3 0  9990
2 40290  97.8920 312.1386 0096320  74.4879 286.6929 14.53592236259867
CZ-2C DEB               
1 40291U 14066F   19264.18066698  .00000236  00000-0  10415-3 0  9994
2 40291  98.4190 335.2734 0175537 344.5990  14.9887 14.24062250254608